SDO

Last updated on Thu Nov 14 2024 00:02:41 GMT+0000 (Coordinated Universal Time)

1 36395U 10005A 24318.44549147 -.00000044 00000+0 00000+0 0 9995 2 36395 33.4344 95.2629 0001965 168.1806 208.3556 1.00271822 54240
UTC large
Height (km)
Speed (km/s)
/
Latitude / Longitude
Inclination (degrees)
Orbital Period (minutes)
Azimuth
Elevation
Range (km)
Doppler Factor

Next 0 passes for location: London (51.5072 / 0.1276)

Sorry there are no passes over London.